STARLINK-11363, 62012

Orbit data source: Space-Track

STARLINK-11363, 62012 is a payload satellite owned by SpaceX/Seattle (US) in LEO that was launched on Mon, 18 Nov 2024 UTC via an FALCON 9 launch vehicle from the Air Force Western Test Range (AFWTR). Payload-class satellites include a variety of spacecraft equipped with specific instruments for various scientific and technological missions. These include communications satellites like Starlink; space stations such as the ISS; scientific satellites like the Hubble; Earth observation satellites from companies like Planet Labs, Umbra, and HawkEye 360; GPS; miniature CubeSats for education and research; and military/defense satellites.

Not visible in the next 10 days
Identifier
62012, 2024-213E
Orbit
LEO
Country
Flag of USUS
Related business
Manufacturer
SpaceX/Seattle
Mission
Operational Commercial Communications
Bus & Motor
STARLINK V2MD, Unknown motor
Mass
960 kg wet, ~910 kg dry
Launch date (UTC)
2024-11-18 (10 months ago)
Launch vehicle
FALCON 9
Launch site
Air Force Western Test Range (AFWTR)
Object type
Payload
Rocket body
Debris
Shape & HBR
Box + 2 Pan, 14.5 m
Radar Cross Section
36.964 m², Large (>1 m²)

Expand to show TLE details & history
Last TLE update: 7 hours ago

TLE from 7 hours ago
0 STARLINK-11363
1 62012U 24213E   25260.94003123  .00289652  00000-0  22899-2 0  9994
2 62012  53.1576 172.8002 0000835  14.9735 345.1307 15.69953954 47780
Epoch: 2025-09-17T22:33Z
TLE epoch observation values (Epoch: 2025-09-17T22:33:38.698Z)
Latitude
-0.00006°
Longitude
-162.71986°
Altitude
359.4 km
Speed
7.695 km/s
True Right ascension
11h 31m 12s
True Declination
0° 00' 00"
Sunlit
Object was in daylight at epoch
Visualization orbit readout
Latitude
Unknown
Longitude
Unknown
Altitude
Unknown
Speed
Unknown
Apparent Right ascension
Unknown
Apparent Declination
Unknown
Sunlit
N/A
Visualization observer readout
Local Sidereal Time
22:22:16
Azimuth
Unknown
Elevation
Unknown
Doppler factor
Unknown
Orbital elements
Apogee altitude
359.852 km
Perigee altitude
358.727 km
Semi-major axis
6,737.427 km
Eccentricity
0.00008
Inclination
53.1576°
RAAN
172.8002°
Arg. of periapsis
14.9735°
True anomaly
345.12824°
Mean anomaly
345.1307°
Eccentric anomaly
345.12947°
Mean motion
3.92466 °/min
Orbital period
91.73 mins
BSTAR
0.0022899
Loading maneuver chart data...
Computing Atmospheric mass density...
Loading historical data...
Loading historical data...
Loading historical data...
Loading historical data...
Loading historical data...
Loading historical data...
Loading historical data...

Documentation

Showing up to 5 results
|